Regional Weather Roundup
Issued by NWS

Home | Current Version | Previous Version | Text Only | Print | Product List | Glossary Off
Versions: 1 2 3 4 5 6 7 8 9 10 11 12 13 14 15 16 17 18 19 20 21 22 23 24 25 26 27 28 29 30 31 32 33 34 35 36 37 38 39 40 41 42 43 44 45 46 47 48 49 50

000
ASUS45 KSLC 011810
RWRUT

UTAH REGIONAL WEATHER ROUNDUP
NATIONAL WEATHER SERVICE SALT LAKE CITY UT
1200 PM MDT TUE SEP 01 2015

UTZ001>011-023>025-011900-

NORTHERN UTAH

CITY           SKY/WX    TMP DP  RH WIND       PRES   REMARKS
BRIGHAM CITY   MOSUNNY   83  43  24 S13       30.01F
HILL AFB       SUNNY     84  47  27 S15       30.04S
LOGAN          SUNNY     76  42  29 E3        30.02F
OGDEN          MOSUNNY   87  46  24 S16       30.01S
PROVO AIRPORT  MOSUNNY   84  50  30 SE6       30.06F
SALT LAKE CITY MOSUNNY   88  46  23 S17G31    29.98F
VERNAL         SUNNY     74  47  38 SE3       30.15F
WENDOVER       SUNNY     81  36  19 E9        30.00F
HEBER CITY     SUNNY     81  43  26 SW21G28   30.11F
WEST JORDAN    SUNNY     84  48  28 SE18G25   30.03F

$$

UTZ012>022-026-027-011900-

SOUTHERN/CENTRAL UTAH

CITY           SKY/WX    TMP DP  RH WIND       PRES   REMARKS
BLANDING       SUNNY     77  48  35 SW6       30.29F
BRYCE CANYON   MOSUNNY   69  49  48 S8        30.33S
CEDAR CITY     SUNNY     80  42  25 S18       30.16S
DELTA          SUNNY     85  41  21 S17G24    30.07F
HANKSVILLE     SUNNY     81  48  32 SE5       30.12S
MILFORD        SUNNY     86  45  23 SW14G24   30.10F
MOAB/CYNLANDS  SUNNY     85  50  29 CALM      30.09F
PRICE          PTSUNNY   71  49  45 W6        30.21R
ST GEORGE      CLEAR     90  52  27 NW8       30.00F
KANAB          SUNNY     79  57  47 S8        30.22F

$$

REGIONAL REPORTS     COLORADO/ARIZONA

CITY           SKY/WX    TMP DP  RH WIND       PRES   REMARKS
CRAIG, CO      SUNNY     79  48  33 NW5       30.19F
GRAND JUNCTION SUNNY     78  51  38 SE6       30.13F
RIFLE          MOSUNNY   73  51  46 W6        30.18F
MONTROSE       SUNNY     81  46  29 SE5       30.20F
CORTEZ         SUNNY     77  45  32 SW5       30.22F
PAGE, AZ       SUNNY     83  53  35 NE5       30.11F
GRAND CANYON   SUNNY     71  50  47 S5        30.29S
KINGMAN        SUNNY     89  52  28 E13       30.05F
FLAGSTAFF      SUNNY     73  48  41 S7        30.31S

$$

REGIONAL REPORTS    NEVADA/IDAHO/WYOMING

CITY           SKY/WX    TMP DP  RH WIND       PRES   REMARKS
LAS VEGAS, NV  MOSUNNY   92  49  22 SE10      29.90S
ELY            SUNNY     79  27  14 S15G29    30.15S
ELKO           SUNNY     81  29  15 N3        30.02F
POCATELLO, ID  SUNNY     74  42  31 NW8       30.02F
BURLEY         SUNNY     75  41  29 CALM      29.98F
EVANSTON, WY   SUNNY     77  38  24 SW24G32   30.20S
ROCK SPRINGS   MOSUNNY   75  39  27 SW8       30.18F
KEMMERER       SUNNY     77  32  19 SW22G29   30.20F

$$


USA.gov is the U.S. government's official web portal to all federal, state and local government web resources and services.